Weather History for Peoria, IL

Change the Weather History Date:

Tuesday, December 24, 2013

  Actual Average Record
Temperature  
Mean Temperature 9 °F 26 °F  
Max Temperature 20 °F 34 °F 65 °F (1889)
Min Temperature -2 °F 19 °F -18 °F (1983)
Degree Days  
Heating Degree Days 56 39  
Month to date heating degree days 963 855  
Since 1 July heating degree days 2145 2003  
Cooling Degree Days 0 0  
Month to date cooling degree days 0 0  
Year to date cooling degree days 1174 1039  
Moisture  
Dew Point 2 °F    
Average Humidity 73    
Maximum Humidity 80    
Minimum Humidity 65    
Precipitation  
Precipitation 0.00 in 0.07 in 2.52 in (1965)
Month to date precipitation 1.47 1.95  
Year to date precipitation 43.54 36.02  
Snow  
Snow 0.00 in 0.30 in 7.60 in (2010)
Month to date snowfall 7.9 5.4  
Since 1 July snowfall 8.5 6.5  
Snow Depth T in    
Sea Level Pressure  
Sea Level Pressure 30.53 in    
Wind  
Wind Speed 7 mph (SSW)    
Max Wind Speed 17 mph    
Max Gust Speed 21 mph    
Visibility 10 miles    
Events      
T = Trace of Precipitation, MM = Missing Value Source: NWS Daily Summary

Daily Weather History Graph

Daily Weather History Graph

Search for Another Location

Airport:

Trip Planner

Search our weather history database for the weather conditions in past years. The results will help you decide how hot, cold, wet, or windy it might be!

Date:

Astronomy

Dec. 24, 2013 Rise Set
Actual Time 7:20 AM CST 4:36 PM CST
Civil Twilight 6:49 AM CST 5:07 PM CST
Nautical Twilight 6:15 AM CST 5:41 PM CST
Astronomical Twilight 5:41 AM CST 6:15 PM CST
Moon 11:47 PM CST (12/24) 11:12 AM CST (12/24)
Length of Visible Light 10h 17m
Length of Day
9h 15m
Waning Gibbous, 58% of the Moon is Illuminated
Dec 24
Waning Gibbous
Dec 25
Last Quarter
Jan 1
New
Jan 7
First Quarter
Jan 15
Full

Hourly Weather History & Observations

Time (CST) Temp. Windchill Dew Point Humidity Pressure Visibility Wind Dir Wind Speed Gust Speed Precip Events Conditions
12:54 AM 3.0 °F -12.5 °F -6.0 °F 66% 30.58 in 10.0 mi West 10.4 mph - N/A   Clear
1:54 AM 1.9 °F -11.8 °F -7.1 °F 66% 30.59 in 10.0 mi WNW 8.1 mph - N/A   Clear
2:54 AM 1.0 °F -11.7 °F -7.1 °F 69% 30.59 in 10.0 mi WNW 6.9 mph - N/A   Clear
3:54 AM -0.0 °F -9.9 °F -8.0 °F 69% 30.59 in 10.0 mi WNW 4.6 mph - N/A   Clear
4:54 AM -0.9 °F -11.0 °F -8.0 °F 72% 30.60 in 10.0 mi WNW 4.6 mph - N/A   Clear
5:54 AM -0.9 °F -11.0 °F -9.0 °F 69% 30.62 in 10.0 mi WNW 4.6 mph - N/A   Clear
6:54 AM -2.0 °F -10.1 °F -9.0 °F 72% 30.62 in 10.0 mi WNW 3.5 mph - N/A   Clear
7:54 AM -2.0 °F -10.1 °F -9.0 °F 72% 30.63 in 10.0 mi North 3.5 mph - N/A   Clear
8:54 AM 1.0 °F -6.7 °F -7.1 °F 69% 30.64 in 10.0 mi Variable 3.5 mph - N/A   Clear
9:54 AM 1.9 °F -9.2 °F -4.0 °F 76% 30.65 in 10.0 mi SW 5.8 mph - N/A   Clear
10:54 AM 6.1 °F - -2.0 °F 69% 30.64 in 10.0 mi Calm Calm - N/A   Clear
11:54 AM 8.1 °F -0.5 °F 1.9 °F 76% 30.61 in 10.0 mi SSW 4.6 mph - N/A   Clear
12:54 PM 10.0 °F -2.9 °F 3.0 °F 73% 30.57 in 10.0 mi South 9.2 mph - N/A   Clear
1:54 PM 12.0 °F 4.1 °F 3.9 °F 70% 30.55 in 10.0 mi South 4.6 mph - N/A   Clear
2:54 PM 14.0 °F 1.2 °F 7.0 °F 74% 30.53 in 10.0 mi South 10.4 mph - N/A   Clear
3:17 PM 14.0 °F 2.0 °F 8.1 °F 77% 30.48 in 5.0 mi SSW 9.2 mph - N/A   Haze
3:54 PM 14.0 °F 1.2 °F 9.0 °F 80% 30.52 in 6.0 mi South 10.4 mph - N/A   Haze
4:54 PM 16.0 °F 6.3 °F 10.0 °F 77% 30.49 in 10.0 mi SSE 6.9 mph - N/A   Overcast
5:54 PM 17.1 °F 5.8 °F 10.0 °F 74% 30.46 in 10.0 mi SSE 9.2 mph - N/A   Mostly Cloudy
6:54 PM 18.0 °F 6.1 °F 10.0 °F 71% 30.43 in 10.0 mi SE 10.4 mph 18.4 mph N/A   Overcast
7:54 PM 19.0 °F 8.2 °F 10.0 °F 68% 30.43 in 10.0 mi SSE 9.2 mph - N/A   Scattered Clouds
8:54 PM 19.9 °F 8.6 °F 10.0 °F 65% 30.40 in 10.0 mi South 10.4 mph 20.7 mph N/A   Partly Cloudy
9:54 PM 19.9 °F 8.6 °F 10.0 °F 65% 30.40 in 10.0 mi SSE 10.4 mph - N/A   Overcast
10:54 PM 19.9 °F 7.3 °F 10.9 °F 68% 30.39 in 10.0 mi South 12.7 mph - N/A   Overcast
11:54 PM 19.9 °F 8.6 °F 12.0 °F 71% 30.38 in 10.0 mi South 10.4 mph - N/A   Overcast